Aérodrome :
LOGIN :

S'inscrire | Disclaimer

   EN    FR    IT 

 










Légende :    VFR   VFR Marginal   IFR   IFR Intensif   IFR Très Intensif
Visi : 
Plafond : 
>= 8 km
>= 3000ft
5 à 8 km
1000 à 3000 ft
1500m à 5 km
500 à 1000 ft
800 à 1500m
200 à 500 ft
< 800m
< 200 ft
Symboles :   Orages  Brouillard  Fortes neiges  Fortes précipitations  Vent > 20 kt
SIGMETs :   Divers  Orages  Givrage  Turbulence  Onde Orograph.  Cendres Volcan.







- Altitude de l'aérodrome : 458 ft
- Voir les cartes d'approche


LFSI - St-Dizier

DERNIER METAR :
  • 191500Z AUTO 24009KT 210V280 CAVOK 28/15 Q1019

METARs EXPIRÉS :
  • 191430Z AUTO 24011KT CAVOK 28/15 Q1019
  • 191400Z AUTO 24012KT 200V270 8000 FEW047 28/15 Q1019
  • 191330Z AUTO 25010KT 200V280 9999 SCT047 28/16 Q1019
  • 191300Z AUTO 25011KT 200V290 CAVOK 28/16 Q1019
  • 191230Z AUTO 25013KT 9999 FEW047 27/15 Q1020

TAF TAF LFSI
Valide du 19 à 15h jusqu'au 20 à 15h UTC


191400Z 1915/2015 24010G20KT CAVOK
Pas de NOTAMs connus pour ce terrain.



MET'MAP, la Météo Aéronautique d'un coup d'oeil ! - Copyright ORBIFLY Décembre 2007 - Disclaimer

ORBIFLY MET'MAP TEAM :

Programmation & Développement : Alexandra Zaïnal
Conception & Développement : Baudouin d'Aumeries
Co-Programmation & Développement : Marc-Olivier Méhu
Soutien technique & logistique : Manuel Goepfert

Contact : metmap@orbifly.com




SOURCES & CREDITS :

   NOAA